| time (UTC) | temp F | wind direction | speed knots | gust knots | rain 1hr in | rain 24hr in | rain mn in | humidity % | barometer mb |
| 20260504231839 | 50 | 140 | 4.3 | 0.0 | 0.00 | 0.00 | 0.00 | 71 | 1016.0 |
| 20260504230338 | 50 | 140 | 4.3 | 0.0 | 0.00 | 0.00 | 0.00 | 71 | 1016.0 |
| 20260504224838 | 50 | 140 | 4.3 | 0.0 | 0.00 | 0.00 | 0.00 | 71 | 1016.0 |
| 20260504223338 | 50 | 140 | 4.3 | 0.0 | 0.00 | 0.00 | 0.00 | 71 | 1016.0 |
| 20260504221901 | 52 | 140 | 4.3 | 0.0 | 0.00 | 0.00 | 0.00 | 67 | 1016.0 |
| 20260504220338 | 52 | 140 | 4.3 | 0.0 | 0.00 | 0.00 | 0.00 | 67 | 1016.0 |
| 20260504214838 | 54 | 110 | 1.7 | 0.0 | 0.00 | 0.00 | 0.00 | 63 | 1016.0 |
| 20260504213354 | 54 | 110 | 1.7 | 0.0 | 0.00 | 0.00 | 0.00 | 63 | 1016.0 |
| 20260504211838 | 52 | 130 | 1.7 | 0.0 | 0.00 | 0.00 | 0.00 | 77 | 1016.0 |
| 20260504210338 | 52 | 130 | 1.7 | 0.0 | 0.00 | 0.00 | 0.00 | 77 | 1016.0 |
| 20260504204838 | 54 | 150 | 1.7 | 0.0 | 0.00 | 0.00 | 0.00 | 67 | 1016.0 |
| 20260504203339 | 54 | 150 | 1.7 | 0.0 | 0.00 | 0.00 | 0.00 | 67 | 1016.0 |
| 20260504201838 | 55 | 0 | 0.0 | 0.0 | 0.00 | 0.00 | 0.00 | 63 | 1016.0 |
| 20260504200339 | 55 | 0 | 0.0 | 0.0 | 0.00 | 0.00 | 0.00 | 63 | 1016.0 |
| 20260504194838 | 55 | 220 | 1.7 | 0.0 | 0.00 | 0.00 | 0.00 | 63 | 1016.0 |
| 20260504193339 | 55 | 220 | 1.7 | 0.0 | 0.00 | 0.00 | 0.00 | 63 | 1016.0 |
| 20260504191838 | 59 | 220 | 1.7 | 0.0 | 0.00 | 0.00 | 0.00 | 51 | 1016.0 |
| 20260504190338 | 59 | 220 | 1.7 | 0.0 | 0.00 | 0.00 | 0.00 | 51 | 1016.0 |
| 20260504184838 | 61 | 230 | 1.7 | 0.0 | 0.00 | 0.00 | 0.00 | 52 | 1016.0 |
| 20260504183349 | 61 | 230 | 1.7 | 0.0 | 0.00 | 0.00 | 0.00 | 52 | 1016.0 |
| 20260504181838 | 63 | 230 | 2.6 | 0.0 | 0.00 | 0.00 | 0.00 | 49 | 1016.0 |
| 20260504180338 | 63 | 230 | 2.6 | 0.0 | 0.00 | 0.00 | 0.00 | 49 | 1016.0 |
| 20260504174838 | 70 | 240 | 1.7 | 0.0 | 0.00 | 0.00 | 0.00 | 35 | 1016.0 |
| 20260504173339 | 70 | 240 | 1.7 | 0.0 | 0.00 | 0.00 | 0.00 | 35 | 1016.0 |
| 20260504171838 | 73 | 270 | 2.6 | 0.0 | 0.00 | 0.00 | 0.00 | 25 | 1016.0 |
| 20260504170338 | 73 | 270 | 2.6 | 0.0 | 0.00 | 0.00 | 0.00 | 25 | 1016.0 |
| 20260504160339 | 77 | 250 | 2.6 | 0.0 | 0.00 | 0.00 | 0.00 | 24 | 1016.0 |
| 20260504150338 | 77 | 230 | 5.2 | 0.0 | 0.00 | 0.00 | 0.00 | 22 | 1016.0 |
| 20260504140339 | 77 | 210 | 4.3 | 0.0 | 0.00 | 0.00 | 0.00 | 22 | 1017.0 |
| 20260504130338 | 75 | 270 | 5.2 | 0.0 | 0.00 | 0.00 | 0.00 | 27 | 1017.0 |
| 20260504110339 | 73 | 4.3 | 0.0 | 0.00 | 0.00 | 0.00 | 29 | 1019.0 | |
| 20260504100338 | 72 | 2.6 | 0.0 | 0.00 | 0.00 | 0.00 | 31 | 1019.0 | |
| 20260504081838 | 66 | 2.6 | 0.0 | 0.00 | 0.00 | 0.00 | 37 | 1020.0 | |
| 20260504080338 | 66 | 2.6 | 0.0 | 0.00 | 0.00 | 0.00 | 37 | 1020.0 | |
| 20260504070339 | 63 | 1.7 | 0.0 | 0.00 | 0.00 | 0.00 | 42 | 1020.0 | |
| 20260504050348 | 48 | 130 | 2.6 | 0.0 | 0.00 | 0.00 | 0.00 | 71 | 1020.0 |
| 20260504044839 | 45 | 150 | 4.3 | 0.0 | 0.00 | 0.00 | 0.00 | 76 | 1020.0 |
| 20260504043338 | 45 | 150 | 4.3 | 0.0 | 0.00 | 0.00 | 0.00 | 76 | 1020.0 |
| 20260504041838 | 41 | 130 | 4.3 | 0.0 | 0.00 | 0.00 | 0.00 | 81 | 1020.0 |
| 20260504040338 | 41 | 130 | 4.3 | 0.0 | 0.00 | 0.00 | 0.00 | 81 | 1020.0 |
| 20260504034839 | 41 | 130 | 2.6 | 0.0 | 0.00 | 0.00 | 0.00 | 76 | 1019.0 |
| 20260504033338 | 41 | 130 | 2.6 | 0.0 | 0.00 | 0.00 | 0.00 | 76 | 1019.0 |
| 20260504031838 | 43 | 160 | 2.6 | 0.0 | 0.00 | 0.00 | 0.00 | 76 | 1019.0 |
| 20260504030459 | 43 | 160 | 2.6 | 0.0 | 0.00 | 0.00 | 0.00 | 76 | 1019.0 |
| 20260504024839 | 43 | 140 | 6.1 | 0.0 | 0.00 | 0.00 | 0.00 | 76 | 1019.0 |
| 20260504023338 | 43 | 140 | 6.1 | 0.0 | 0.00 | 0.00 | 0.00 | 76 | 1019.0 |
| 20260504021838 | 43 | 130 | 5.2 | 0.0 | 0.00 | 0.00 | 0.00 | 76 | 1019.0 |
| 20260504020338 | 43 | 130 | 5.2 | 0.0 | 0.00 | 0.00 | 0.00 | 76 | 1019.0 |
| 20260504014838 | 45 | 140 | 4.3 | 0.0 | 0.00 | 0.00 | 0.00 | 76 | 1019.0 |
| 20260504013343 | 45 | 140 | 4.3 | 0.0 | 0.00 | 0.00 | 0.00 | 76 | 1019.0 |
| 20260504011958 | 43 | 130 | 4.3 | 0.0 | 0.00 | 0.00 | 0.00 | 76 | 1019.0 |
| 20260504010338 | 43 | 130 | 4.3 | 0.0 | 0.00 | 0.00 | 0.00 | 76 | 1019.0 |
| 20260504004958 | 43 | 130 | 4.3 | 0.0 | 0.00 | 0.00 | 0.00 | 76 | 1019.0 |
| 20260504003338 | 43 | 130 | 4.3 | 0.0 | 0.00 | 0.00 | 0.00 | 76 | 1019.0 |
| 20260504001838 | 43 | 150 | 0.9 | 0.0 | 0.00 | 0.00 | 0.00 | 81 | 1019.0 |
| 20260504000339 | 43 | 150 | 0.9 | 0.0 | 0.00 | 0.00 | 0.00 | 81 | 1019.0 |
| 20260503234918 | 43 | 140 | 1.7 | 0.0 | 0.00 | 0.00 | 0.00 | 81 | 1019.0 |
| 20260503233338 | 43 | 140 | 1.7 | 0.0 | 0.00 | 0.00 | 0.00 | 81 | 1019.0 |